Weather in Kamennoye

Russia / Khanty-Mansi Autonomous Okrug — Yugra     61°34′21″N   67°29′07″E
temp.,
°C
wind,
m/s
gust,
m/s
humid.,
%
clouds,
%
prec.,
mm/h
press.,
hPa
HPBL,
m
16 may, sun
sun1623:00+16ene348792 4.2 1011157
02:00+14wnw3495100 0.4 1012100
05:00+13nnw5993100 2.7 1014425
08:00+15n347941 2.8 1014562
11:00+17nnw456066 2.8 10151115
14:00+20nnw3448100 0.0 10151385
17:00+21n3441100 0.0 10141544
20:00+20e4449100 0.0 1012162
17 may, mon
mon1723:00+15ssw5989100 5.0 1011419
02:00+15w2491100 0.0 1011155
05:00+14wsw3109381 0.1 1010314
08:00+18wsw467676 0.0 1009549
11:00+22wnw685859 0.0 10091395
14:00+24nw61043100 0.2 10082451
17:00+23n555089 0.4 10071199
20:00+17sw4681100 7.7 1008373
18 may, tue
tue1823:00+15nne3486100 10.4 1008372
02:00+12ne578388 0.4 1010357
05:00+9nne6889100 2.3 1012555
08:00+8nne71189100 3.5 1015645
11:00+11nne796397 4.2 10181276
14:00+14nne78415 0.0 10191808
17:00+15nne773561 0.0 10211900
20:00+13nne67425 0.0 10231091
19 may, wed
wed1923:00+8nne475196 0.0 1025223
02:00+6ne355659 0.0 1026130
05:00+6ne245880 0.0 1027157
08:00+8ne2342100 0.0 1027688
11:00+10nne113550 0.0 10271090
14:00+13wnw12335 0.0 10251240
17:00+16wsw24325 0.0 10231545
20:00+16ssw3439100 0.0 1021500
20 may, thu
thu2023:00+13ssw5115485 0.0 1020231
02:00+12sw7155977 0.0 1017327
05:00+12wsw6136874 0.0 1015267
08:00+18w81354100 0.0 1013524
11:00+24w91240100 0.0 10111108
14:00+28wnw1014325 0.0 10092882
17:00+22nnw131859100 0.4 10111125
20:00+25wnw715455 0.4 1008497